Location: Unspecified
(35.6961°N, 0.0000°E)
Time: 01:50:38
(UTC+00:00)

S-56A Canister/Altair - Pass Details

Date: 04 October 2020
Orbit: 632 x 2500 km, 38.9° (Epoch: 20 October)

Event Time Altitude Azimuth Distance (km) Brightness Sun altitude
Rises 20:20:36 0° 288° (WNW) 5,856 13.1 -33.2°
Reaches altitude 10° 20:25:53 10° 276° (W) 4,579 12.2 -34.2°
Maximum altitude 20:34:10 22° 233° (SW) 3,172 10.8 -35.7°
Enters shadow 20:38:57 15° 197° (SSW) 3,251 10.6 -36.6°
